www.pogodaiklimat.ru

Погода и климат >> Архив погоды >> Россия >> Приморский край >> Кавалерово


ПОГОДА в Кавалерово

  • Прогноз погоды в Кавалерово
  • Монитор погоды в Кавалерово

АРХИВ ПОГОДЫ в Кавалерово

Время (UTC), дата Ветер
(напр.,м/с)
 
Видим.   Явления Облачность Т
(С)
Тd
(С)
f
(%)
Тe
(С)
Тes
(С)
Комфортность P
(гПа)
Po
(гПа)
Тmin
(С)
Tmax
(С)
R
(мм)
R24
(мм)
S
(см)
09 10.07 ЮВ 4 50 км ясно +18.9 +14.6 76 +20 +21 1016.0 992.0 +22.4
12 10.07 ЮВ 3 50 км ясно +13.7 +12.8 94 +12 +12 1017.8 993.3
15 10.07 В 2 4000 м дымка 10 баллов +12.9 +12.6 98 +12 +12 1017.8 993.3
18 10.07 ЮЗ 1 4000 м дымка 10 баллов +12.7 +12.2 97 +13 +13 1016.5 992.0
21 10.07 штиль 0 2000 м дымка 10/10 600 м
[Sc]
+12.6 +12.2 97 +12 +12 1015.5 991.4 +12.5
00 11.07 штиль 0 4000 м дымка 10/10 600 м
[Sc]
+14.9 +13.0 88 +15 +15 1014.8 990.8
03 11.07 ЮВ 4 50 км 10 баллов +21.2 +14.1 64 +24 +24 комфорт 1013.0 989.3
06 11.07 В 3 50 км 10 баллов +22.3 +15.6 66 +26 +26 жарко 1011.6 988.0
09 11.07 ЮВ 3 50 км 9/0
[Ac trans]
+20.7 +15.0 70 +24 +24 комфорт 1010.4 986.7 +23.1
12 11.07 В 1 50 км 10/0
[Ac trans Ci fib]
+15.9 +14.2 90 +17 +17 1009.4 985.6
15 11.07 штиль 0 50 км 10 баллов +12.7 +12.4 98 +12 +12 1009.7 985.3
18 11.07 В 1 4000 м дымка 10 баллов +14.0 +13.7 98 +14 +14 1008.2 984.0
21 11.07 ЮВ 1 2000 м дымка 10/10 600 м
[Sc]
+14.3 +13.9 97 +15 +15 1006.4 982.6 +12.4
00 12.07 ЮВ 1 2000 м слаб. дождь 10/10 300 м
[Frnb Ns]
+15.8 +15.0 95 +16 +16 1005.8 982.1
03 12.07 штиль 0 4000 м в посл. час дождь 10 баллов +16.6 +14.4 87 +16 +16 1005.2 981.3
06 12.07 штиль 0 4000 м слаб. морось 10 баллов +16.0 +15.0 94 +16 +16 1003.9 980.0
09 12.07 ЮВ 1 4000 м слаб. морось {дождь} 10/10 300 м
[St]
+16.1 +15.5 96 +17 +17 1003.9 980.0 +16.6 9
12 12.07 З 1 4000 м слаб. морось {дождь} 10/10 300 м
[St]
+15.1 +14.6 97 +16 +16 1002.9 979.2
15 12.07 штиль 0 10 км слаб. дождь 10 баллов +15.0 +14.7 98 +15 +15 1002.7 978.7
18 12.07 штиль 0 50 км 10 баллов +14.9 +14.7 99 +15 +15 1002.7 978.7
21 12.07 СЗ 1 50 км 10/10 300 м
[Sc]
+15.4 +15.1 98 +16 +16 1002.4 978.8 +14.9 6
00 13.07 штиль 0 50 км 10/10 600 м
[Sc]
+17.9 +16.5 92 +18 +18 1003.0 979.6
03 13.07 ЮВ 3 50 км 10 баллов +19.0 +15.9 82 +21 +21 комфорт 1005.0 981.3
06 13.07 ЮВ 2 50 км 10 баллов +19.0 +16.2 84 +21 +21 комфорт 1005.0 981.3
09 13.07 ЮВ 3 50 км 10/10 600 м
[Sc]
+17.3 +15.9 91 +17 +17 1003.5 980.0 +19.5
12 13.07 штиль 0 50 км 10/10 600 м
[Sc]
+16.1 +15.2 94 +16 +16 1004.9 981.3
18 13.07 штиль 0 50 км 10 баллов +15.0 +14.7 98 +15 +15 1006.8 982.7
21 13.07 штиль 0 4000 м слаб. дождь 10/0 600 м
[As op]
+15.4 +15.1 98 +15 +15 1005.6 981.9 +14.9 0.4
00 14.07 штиль 0 50 км {дождь} 10/10 600 м
[Sc]
+18.5 +15.7 84 +19 +19 1005.2 981.7
03 14.07 Ю 1 50 км 10 баллов +20.6 +15.8 74 +25 +25 комфорт 1006.3 982.7
06 14.07 ЮВ 3 50 км 10 баллов +18.9 +15.9 83 +20 +20 1006.4 982.7
09 14.07 ЮВ 3 50 км 10/10 600 м
[Sc]
+17.2 +15.7 91 +17 +17 1007.9 984.0 +21.3 0.0
12 14.07 В 2 50 км в посл. час дождь 10/10 300 м
[Sc]
+15.9 +14.8 93 +16 +16 1008.4 984.7
15 14.07 З 1 10 км слаб. дождь 10 баллов +15.1 +14.6 97 +16 +16 1010.9 986.7
18 14.07 З 1 10 км слаб. дождь 10 баллов +14.9 +14.6 98 +15 +15 1010.9 986.7
21 14.07 штиль 0 4000 м слаб. дождь 10/10 300 м
[Frnb Ns]
+15.2 +14.9 98 +15 +15 1011.0 987.2 +14.8 4
00 15.07 ЮВ 2 2000 м слаб. морось {дождь} 10/10 300 м
[St]
+15.5 +14.9 96 +15 +15 1012.4 988.5
03 15.07 ЮВ 2 4000 м слаб. морось 10 баллов +16.4 +15.1 92 +16 +16 1014.9 990.7
06 15.07 В 1 50 км 10 баллов +16.9 +15.2 90 +18 +18 1014.8 990.7
09 15.07 ЮВ 3 50 км {морось} 10/10 300 м
[St]
+16.1 +15.0 93 +16 +16 1014.9 990.7 +17.0 1
12 15.07 ЮВ 1 50 км {морось} 10/10 300 м
[St]
+15.2 +14.1 93 +16 +16 1015.1 991.2
15 15.07 З 1 50 км 10 баллов +14.6 +14.1 97 +15 +15 1016.3 992.0
18 15.07 штиль 0 50 км 10 баллов +14.3 +13.8 97 +14 +14 1016.4 992.0
21 15.07 штиль 0 2000 м дымка 10/10 300 м
[St]
+14.7 +14.0 96 +14 +14 1015.7 991.7 +14.2
00 16.07 штиль 0 2000 м слаб. морось 10/10 300 м
[St]
+16.3 +14.3 88 +16 +16 1016.1 992.2
03 16.07 З 1 50 км 10 баллов +19.4 +15.1 76 +22 +22 комфорт 1015.9 992.0
06 16.07 В 1 50 км 10 баллов +20.1 +15.9 77 +24 +24 комфорт 1014.5 990.7
09 16.07 ЮВ 3 50 км 9/9 600 м
[Sc]
+20.2 +16.6 80 +23 +24 комфорт 1014.5 990.7 +21.1 0.3
12 16.07 В 1 50 км 8/4 600 м
[Sc Ac trans Ci fib]
+17.1 +15.9 93 +18 +18 1013.7 989.9
15 16.07 штиль 0 50 км 7 баллов +14.7 +14.2 97 +14 +14 1015.0 990.7
18 16.07 Ю 1 1000 м дымка 10 баллов +15.3 +15.0 98 +16 +16 1014.9 990.7
21 16.07 штиль 0 200 м туман ?/? +15.6 +15.6 100 +15 +15 1013.1 989.2 +14.6
00 17.07 ЮВ 1 50 км {туман} 8/3 300 м
[St Ac trans Ci fib]
+20.9 +16.6 76 +26 +32 душно 1011.8 988.4
03 17.07 В 3 50 км 7 баллов +23.9 +17.9 69 +28 +33 душно 1011.4 988.0

 

Местоположение метеостанции Кавалерово (Приморский край, Россия): широта 44.25 долгота 135.00 высота над уровнем моря 206 м.

В архиве по умолчанию представлена погода в Кавалерово за последнюю неделю. Архивные данные за месяц целиком и за предыдущие месяцы, начиная с января 2011 года, Вы можете получить, выбрав интересующий диапазон дат из раскрывающегося списка и нажав кнопку "Ввод!".


*Определитесь, кто Вы:
робот инопланетянин человек

Внимание! Время в таблицах - всемирное. Для получения местного времени необходимо прибавить поправку, которая равна 10 ч.

Смотрите также архив погоды в соседних городах и на ближайших метеорологических станциях:

Погода в Богополе (Приморский край, Россия) (32 км)
Погода в Ольге (Приморский край, Россия) (61 км)
Погода в Рудной Пристани (Приморский край, Россия) (65 км)
Погода в Дальнегорске (Приморский край, Россия) (90 км)
Погода в Чугуевке (Приморский край, Россия) (96 км)
Погода в Лучегорске (Приморский край, Россия) (99 км)
Погода в Лазо (Приморский край, Россия) (135 км)
Погода в Мельничном (Приморский край, Россия) (139 км)
Погода в Малиново (Приморский край, Россия) (145 км)
Погода в Тернее (Приморский край, Россия) (152 км)

Пояснения к столбцам:

Ветер - указаны скорость ветра в м/с - средняя за 10 мин, порывы в срок и между сроками (в фигурных скобках) и направление, откуда дует ветер: С - северный, СВ - северо-восточный, В - восточный, ЮВ - юго-восточный, Ю - южный, ЮЗ - юго-западный, З - западный, СЗ - северо-западный.
Видимость - горизонтальная дальность видимости в метрах или километрах. При видимости от 1 до 10 км при отсутствии осадков обычно наблюдается дымка, при ухудшении видимости до 1 км и менее - туман. В сухую погоду видимость может ухудшаться дымом, пылью или мглою.
Явления - указаны атмосферные явления, наблюдавшиеся в срок или в последний час перед сроком; фигурными скобками обозначены явления, наблюдавшиеся между сроками (за 1-3 часа до срока); квадратными скобками обозначены град или гололедные отложения с указанием их диаметра в мм.
Облачность - указаны через наклонную черту общая и нижняя облачность в баллах и высота нижней границы облаков в метрах; квадратными скобками обозначены формы облаков: Ci - перистые, Cs - перисто-слоистые, Cc - перисто-кучевые, Ac - высококучевые, As - высокослоистые, Sc - слоисто-кучевые, Ns - слоисто-дождевые, Cu - кучевые, Cb - кучево-дождевые. Подробнее классификацию облаков см. в Атласе облаков (PDF).
T - Температура воздуха - температура, измеренная на высоте 2 м над землей.
Td - Температура точки росы - температура, при понижении до которой содержащийся в воздухе водяной пар достигнет насыщения.
f - Относительная влажность воздуха - влажноcть воздуха, измеренная на высоте 2 м над землей.
Te - Эффективная температура - температура, которую ощущает одетый по сезону человек в тени. Характеристика душности погоды. При расчете учитывается влияние влажности воздуха и скорости ветра на теплоощущения человека.
Tes - Эффективная температура на солнце - температура, которую ощущает человек, с поправкой на солнечный нагрев. Характеристика знойности погоды. Зависит от высоты солнца над горизонтом, облачности и скорости ветра. Ночью, в пасмурную погоду, а также при ветре 12 м/с и более поправка равна нулю.
P - Атмосферное давление - приведенное к уровню моря атмосферное давление.
Po - Атмосферное давление - измеренное на уровне метеостанции атмосферное давление.
Tmin - Минимальная температура - минимум температуры воздуха на высоте 2 м над землей.
Tmax - Максимальная температура - максимум температуры воздуха на высоте 2 м над землей.
R - Количество осадков - Количество выпавших осадков за период времени, мм. При наведении курсора мыши на число - период времени, за который выпало указанное количество осадков.
R24 - Количество осадков - Количество выпавших осадков за 24 часа, мм.
S - Снежный покров - Высота снежного покрова, см. При наведении курсора мыши на число - состояние снежного покрова и степень покрытия местности в баллах.